CCA9911 ZYTX-ZYCC

Flight info

Callsign CCA9911
Flight time 0h 50m
Altitude 26600
Route LEM71D LEMOT W657 CC455
Aircraft A339/H-SADE1E2E3GHIJ3J5M1P2RWXY/LB2D1

Departure

Time 2026-04-18 09:35
Airport Shenyang Taoxian International Airport (ZYTX)

Arrival

Time 2026-04-18 10:25
Airport Changchun Longjia International Airport (ZYCC)
Time Latitude Longitude Altitude Speed Heading
2026-04-18 09:18 41.64238 123.49253 215 ft 0 kts 135°
2026-04-18 09:28 41.64233 123.49259 215 ft 2 kts 135°
2026-04-18 09:28 41.64216 123.49283 215 ft 4 kts 135°
2026-04-18 09:29 41.64188 123.49296 215 ft 5 kts 190°
2026-04-18 09:29 41.64151 123.49275 215 ft 6 kts 217°
2026-04-18 09:29 41.64137 123.49230 215 ft 5 kts 275°
2026-04-18 09:29 41.64162 123.49193 215 ft 6 kts 318°
2026-04-18 09:30 41.64204 123.49145 215 ft 9 kts 319°
2026-04-18 09:30 41.64258 123.49104 215 ft 7 kts 360°
2026-04-18 09:30 41.64299 123.49144 215 ft 8 kts 48°
2026-04-18 09:30 41.64344 123.49213 215 ft 13 kts 48°
2026-04-18 09:31 41.64430 123.49344 215 ft 19 kts 47°
2026-04-18 09:31 41.64524 123.49481 215 ft 20 kts 48°
2026-04-18 09:31 41.64618 123.49622 215 ft 20 kts 47°
2026-04-18 09:31 41.64714 123.49764 215 ft 20 kts 47°
2026-04-18 09:32 41.64818 123.49897 215 ft 18 kts 20°
2026-04-18 09:32 41.64895 123.49839 215 ft 11 kts 294°
2026-04-18 09:32 41.64918 123.49741 215 ft 10 kts 261°
2026-04-18 09:32 41.64874 123.49659 215 ft 11 kts 227°
2026-04-18 09:33 41.64862 123.49642 215 ft 0 kts 227°
2026-04-18 09:34 41.64860 123.49639 215 ft 1 kts 227°
2026-04-18 09:34 41.64698 123.49393 215 ft 75 kts 229°
2026-04-18 09:34 41.64191 123.48623 216 ft 143 kts 228°
2026-04-18 09:35 41.63451 123.47514 628 ft 167 kts 226°
2026-04-18 09:35 41.62723 123.46483 1644 ft 151 kts 227°
2026-04-18 09:35 41.62048 123.45411 2344 ft 159 kts 229°
2026-04-18 09:35 41.61309 123.44218 2910 ft 176 kts 229°
2026-04-18 09:36 41.60486 123.42911 3466 ft 193 kts 229°
2026-04-18 09:36 41.59582 123.41501 3987 ft 212 kts 229°
2026-04-18 09:36 41.58575 123.39942 4561 ft 231 kts 228°
2026-04-18 09:36 41.57246 123.38639 5130 ft 254 kts 202°
2026-04-18 09:37 41.55434 123.38359 5949 ft 272 kts 176°
2026-04-18 09:37 41.53654 123.39195 6866 ft 283 kts 156°
2026-04-18 09:37 41.51912 123.40468 7751 ft 289 kts 154°
2026-04-18 09:37 41.50149 123.41769 8612 ft 296 kts 155°
2026-04-18 09:38 41.48321 123.43116 9485 ft 302 kts 152°
2026-04-18 09:38 41.46707 123.44903 10315 ft 315 kts 132°
2026-04-18 09:38 41.45567 123.47491 10941 ft 333 kts 114°
2026-04-18 09:38 41.44725 123.50443 11468 ft 352 kts 110°
2026-04-18 09:39 41.43886 123.53578 12079 ft 367 kts 111°
2026-04-18 09:39 41.43015 123.56768 12960 ft 372 kts 110°
2026-04-18 09:39 41.42257 123.60012 13882 ft 375 kts 106°
2026-04-18 09:39 41.41681 123.63442 14765 ft 381 kts 101°
2026-04-18 09:40 41.41244 123.66900 15575 ft 388 kts 100°
2026-04-18 09:40 41.40822 123.70469 16385 ft 394 kts 100°
2026-04-18 09:40 41.40395 123.74072 17199 ft 400 kts 100°
2026-04-18 09:40 41.39950 123.77756 17986 ft 406 kts 100°
2026-04-18 09:41 41.39493 123.81477 18799 ft 412 kts 100°
2026-04-18 09:41 41.39031 123.85204 19622 ft 416 kts 100°
2026-04-18 09:41 41.38572 123.89037 20452 ft 420 kts 97°
2026-04-18 09:41 41.38391 123.92851 21469 ft 418 kts 89°
2026-04-18 09:42 41.38565 123.96699 22522 ft 413 kts 82°
2026-04-18 09:42 41.38941 124.00452 23491 ft 410 kts 80°
2026-04-18 09:42 41.39359 124.04147 24412 ft 409 kts 79°
2026-04-18 09:42 41.39777 124.07880 25264 ft 408 kts 80°
2026-04-18 09:43 41.40177 124.11607 25964 ft 411 kts 80°
2026-04-18 09:43 41.40573 124.15404 26449 ft 416 kts 80°
2026-04-18 09:43 41.40966 124.19215 26574 ft 418 kts 80°
2026-04-18 09:43 41.41369 124.23028 26574 ft 418 kts 78°
2026-04-18 09:44 41.42302 124.26605 26555 ft 412 kts 55°
2026-04-18 09:44 41.44168 124.29408 26565 ft 399 kts 31°
2026-04-18 09:44 41.46515 124.31284 26581 ft 394 kts 23°
2026-04-18 09:44 41.48931 124.33015 26573 ft 393 kts 22°
2026-04-18 09:45 41.51318 124.34731 26568 ft 394 kts 23°
2026-04-18 09:45 41.53743 124.36509 26567 ft 395 kts 24°
2026-04-18 09:45 41.56111 124.38269 26565 ft 394 kts 24°
2026-04-18 09:45 41.58516 124.40077 26565 ft 394 kts 24°
2026-04-18 09:46 41.60896 124.41876 26565 ft 394 kts 24°
2026-04-18 09:46 41.63272 124.43675 26564 ft 394 kts 24°
2026-04-18 09:46 41.65658 124.45487 26561 ft 394 kts 24°
2026-04-18 09:46 41.68036 124.47295 26560 ft 394 kts 24°
2026-04-18 09:47 41.70407 124.49100 26561 ft 394 kts 24°
2026-04-18 09:47 41.72786 124.50913 26562 ft 394 kts 24°
2026-04-18 09:47 41.75189 124.52746 26561 ft 394 kts 24°
2026-04-18 09:47 41.77547 124.54546 26561 ft 395 kts 24°
2026-04-18 09:48 41.79929 124.56367 26558 ft 395 kts 24°
2026-04-18 09:48 41.82333 124.58202 26559 ft 394 kts 24°
2026-04-18 09:48 41.84695 124.60004 26560 ft 394 kts 24°
2026-04-18 09:48 41.87069 124.61818 26559 ft 394 kts 24°
2026-04-18 09:49 41.89462 124.63649 26558 ft 395 kts 24°
2026-04-18 09:49 41.91835 124.65465 26560 ft 394 kts 24°
2026-04-18 09:49 41.94227 124.67293 26560 ft 395 kts 24°
2026-04-18 09:49 41.96620 124.69002 26563 ft 393 kts 22°
2026-04-18 09:50 41.99064 124.70679 26565 ft 393 kts 21°
2026-04-18 09:50 42.01511 124.72347 26566 ft 392 kts 21°
2026-04-18 09:50 42.03936 124.74000 26567 ft 393 kts 21°
2026-04-18 09:50 42.06342 124.75648 26570 ft 393 kts 21°
2026-04-18 09:51 42.08781 124.77322 26568 ft 393 kts 21°
2026-04-18 09:51 42.11207 124.78992 26567 ft 393 kts 21°
2026-04-18 09:51 42.13648 124.80673 26567 ft 392 kts 21°
2026-04-18 09:51 42.16069 124.82337 26567 ft 392 kts 21°
2026-04-18 09:52 42.18523 124.84025 26569 ft 392 kts 21°
2026-04-18 09:52 42.20946 124.85693 26568 ft 392 kts 21°
2026-04-18 09:52 42.23358 124.87356 26568 ft 392 kts 21°
2026-04-18 09:52 42.25766 124.89017 26567 ft 392 kts 21°
2026-04-18 09:53 42.28185 124.90689 26565 ft 392 kts 21°
2026-04-18 09:53 42.30638 124.92383 26564 ft 392 kts 21°
2026-04-18 09:53 42.33036 124.94042 26563 ft 392 kts 21°
2026-04-18 09:53 42.35468 124.95727 26560 ft 392 kts 21°
2026-04-18 09:54 42.37903 124.97415 26559 ft 392 kts 21°
2026-04-18 09:54 42.40337 124.99103 26558 ft 392 kts 21°
2026-04-18 09:54 42.42735 125.00768 26554 ft 393 kts 21°
2026-04-18 09:54 42.45186 125.02470 26554 ft 393 kts 21°
2026-04-18 09:55 42.47593 125.04145 26556 ft 392 kts 21°
2026-04-18 09:55 42.50012 125.05829 26555 ft 391 kts 21°
2026-04-18 09:55 42.52420 125.07507 26555 ft 391 kts 21°
2026-04-18 09:55 42.54853 125.09203 26555 ft 391 kts 21°
2026-04-18 09:56 42.57276 125.10895 26552 ft 391 kts 21°
2026-04-18 09:56 42.59657 125.12560 26559 ft 391 kts 21°
2026-04-18 09:56 42.62114 125.14137 26562 ft 387 kts 15°
2026-04-18 09:56 42.64668 125.15256 26565 ft 381 kts
2026-04-18 09:57 42.67240 125.15897 26568 ft 379 kts
2026-04-18 09:57 42.69873 125.16335 26566 ft 380 kts
2026-04-18 09:57 42.72499 125.16739 26565 ft 381 kts
2026-04-18 09:57 42.75137 125.17152 26563 ft 381 kts
2026-04-18 09:58 42.77733 125.17573 26562 ft 381 kts
2026-04-18 09:58 42.80368 125.18152 26552 ft 387 kts 11°
2026-04-18 09:58 42.82790 125.19817 26551 ft 399 kts 32°
2026-04-18 09:58 42.84692 125.22586 26563 ft 410 kts 50°
2026-04-18 09:59 42.86258 125.25841 26570 ft 411 kts 53°
2026-04-18 09:59 42.87791 125.29142 26566 ft 411 kts 52°
2026-04-18 09:59 42.89325 125.32394 26564 ft 410 kts 52°
2026-04-18 10:00 42.93134 125.37887 26562 ft 395 kts 27°
2026-04-18 10:00 42.95504 125.39736 26570 ft 389 kts 21°
2026-04-18 10:00 42.97925 125.41402 26568 ft 389 kts 20°
2026-04-18 10:00 43.00347 125.43047 26568 ft 390 kts 20°
2026-04-18 10:01 43.02757 125.44696 26568 ft 390 kts 20°
2026-04-18 10:01 43.05152 125.46355 26570 ft 390 kts 20°
2026-04-18 10:01 43.07597 125.48058 26265 ft 393 kts 20°
2026-04-18 10:01 43.10012 125.49746 25615 ft 397 kts 20°
2026-04-18 10:02 43.12474 125.51475 25059 ft 398 kts 21°
2026-04-18 10:02 43.14926 125.53204 24539 ft 397 kts 21°
2026-04-18 10:02 43.17377 125.54932 24052 ft 396 kts 21°
2026-04-18 10:02 43.19810 125.56651 23564 ft 394 kts 21°
2026-04-18 10:03 43.22244 125.58369 23064 ft 393 kts 21°
2026-04-18 10:03 43.24663 125.60081 22564 ft 392 kts 21°
2026-04-18 10:03 43.27083 125.61794 22066 ft 391 kts 20°
2026-04-18 10:03 43.29497 125.63502 21550 ft 391 kts 21°
2026-04-18 10:04 43.31911 125.65212 21029 ft 391 kts 21°
2026-04-18 10:04 43.34297 125.66905 20516 ft 390 kts 21°
2026-04-18 10:04 43.36694 125.68602 19981 ft 389 kts 20°
2026-04-18 10:04 43.39226 125.69712 19445 ft 374 kts
2026-04-18 10:05 43.41717 125.69485 19064 ft 356 kts 341°
2026-04-18 10:05 43.44009 125.68330 18669 ft 347 kts 333°
2026-04-18 10:05 43.46221 125.67073 18279 ft 344 kts 333°
2026-04-18 10:05 43.48444 125.65816 17874 ft 341 kts 333°
2026-04-18 10:06 43.50621 125.64593 17477 ft 339 kts 333°
2026-04-18 10:06 43.52800 125.63377 17080 ft 336 kts 333°
2026-04-18 10:06 43.54944 125.62183 16682 ft 334 kts 333°
2026-04-18 10:06 43.57101 125.60984 16274 ft 331 kts 333°
2026-04-18 10:07 43.59204 125.59816 15896 ft 329 kts 333°
2026-04-18 10:07 43.61316 125.58644 15502 ft 327 kts 333°
2026-04-18 10:07 43.63444 125.57560 15115 ft 328 kts 341°
2026-04-18 10:07 43.65745 125.57443 14714 ft 341 kts
2026-04-18 10:08 43.68010 125.58556 14319 ft 354 kts 24°
2026-04-18 10:08 43.69896 125.60805 13932 ft 364 kts 43°
2026-04-18 10:08 43.71537 125.63482 13552 ft 363 kts 45°
2026-04-18 10:08 43.73134 125.66127 13174 ft 361 kts 44°
2026-04-18 10:09 43.74760 125.68786 12767 ft 359 kts 44°
2026-04-18 10:09 43.76363 125.71378 12397 ft 357 kts 44°
2026-04-18 10:09 43.77977 125.73976 12019 ft 356 kts 44°
2026-04-18 10:09 43.79598 125.76581 11622 ft 355 kts 44°
2026-04-18 10:10 43.81280 125.78974 11209 ft 346 kts 31°
2026-04-18 10:10 43.83415 125.80241 10822 ft 328 kts
2026-04-18 10:10 43.85640 125.80215 10465 ft 315 kts 348°
2026-04-18 10:10 43.87778 125.79858 10219 ft 309 kts 347°
2026-04-18 10:11 43.89887 125.79524 10144 ft 297 kts 348°
2026-04-18 10:11 43.91934 125.79394 10040 ft 295 kts
2026-04-18 10:11 43.93833 125.80462 9947 ft 301 kts 31°
2026-04-18 10:11 43.95315 125.82512 9771 ft 302 kts 44°
2026-04-18 10:12 43.96652 125.84730 9493 ft 302 kts 46°
2026-04-18 10:12 43.97983 125.86977 9203 ft 301 kts 46°
2026-04-18 10:12 43.99326 125.89216 8917 ft 300 kts 46°
2026-04-18 10:12 44.00649 125.91392 8757 ft 294 kts 46°
2026-04-18 10:13 44.01957 125.93528 8732 ft 284 kts 46°
2026-04-18 10:13 44.03218 125.95582 8687 ft 274 kts 45°
2026-04-18 10:13 44.04432 125.97553 8671 ft 264 kts 45°
2026-04-18 10:13 44.05611 125.99468 8585 ft 257 kts 45°
2026-04-18 10:14 44.06766 126.01335 8351 ft 256 kts 45°
2026-04-18 10:14 44.07913 126.03191 8112 ft 254 kts 46°
2026-04-18 10:14 44.09067 126.05064 7879 ft 252 kts 46°
2026-04-18 10:14 44.10191 126.06891 7654 ft 249 kts 46°
2026-04-18 10:15 44.11322 126.08733 7429 ft 247 kts 47°
2026-04-18 10:15 44.12423 126.10529 7213 ft 244 kts 47°
2026-04-18 10:15 44.13522 126.12320 6994 ft 242 kts 47°
2026-04-18 10:15 44.14745 126.13868 6743 ft 236 kts 22°
2026-04-18 10:16 44.16292 126.14234 6507 ft 226 kts 346°
2026-04-18 10:16 44.17695 126.13391 6286 ft 215 kts 318°
2026-04-18 10:16 44.18816 126.12050 6093 ft 212 kts 314°
2026-04-18 10:16 44.19910 126.10685 5895 ft 210 kts 315°
2026-04-18 10:17 44.20993 126.09351 5716 ft 210 kts 315°
2026-04-18 10:17 44.21915 126.07797 5466 ft 207 kts 292°
2026-04-18 10:17 44.22140 126.05874 5232 ft 203 kts 262°
2026-04-18 10:17 44.21635 126.04052 5010 ft 202 kts 234°
2026-04-18 10:18 44.20747 126.02563 4821 ft 201 kts 228°
2026-04-18 10:18 44.19828 126.01109 4622 ft 200 kts 228°
2026-04-18 10:18 44.18914 125.99657 4424 ft 199 kts 228°
2026-04-18 10:18 44.18004 125.98200 4231 ft 198 kts 228°
2026-04-18 10:19 44.17116 125.96764 4039 ft 198 kts 228°
2026-04-18 10:19 44.16217 125.95309 3849 ft 197 kts 228°
2026-04-18 10:19 44.15321 125.93852 3657 ft 197 kts 227°
2026-04-18 10:19 44.14430 125.92408 3471 ft 196 kts 227°
2026-04-18 10:20 44.13559 125.90994 3296 ft 191 kts 227°
2026-04-18 10:20 44.12720 125.89632 3256 ft 177 kts 227°
2026-04-18 10:20 44.11950 125.88369 3199 ft 167 kts 227°
2026-04-18 10:20 44.11221 125.87167 3137 ft 158 kts 227°
2026-04-18 10:21 44.10542 125.86056 3095 ft 146 kts 226°
2026-04-18 10:21 44.09882 125.84991 3084 ft 144 kts 226°
2026-04-18 10:21 44.09215 125.83922 3097 ft 150 kts 226°
2026-04-18 10:21 44.08527 125.82819 3071 ft 153 kts 226°
2026-04-18 10:22 44.07822 125.81690 2874 ft 153 kts 226°
2026-04-18 10:22 44.07132 125.80582 2674 ft 154 kts 226°
2026-04-18 10:22 44.06433 125.79459 2472 ft 152 kts 226°
2026-04-18 10:22 44.05741 125.78348 2269 ft 152 kts 226°
2026-04-18 10:23 44.05048 125.77235 2065 ft 153 kts 227°
2026-04-18 10:23 44.04356 125.76120 1868 ft 154 kts 226°
2026-04-18 10:23 44.03662 125.75004 1660 ft 149 kts 225°
2026-04-18 10:23 44.03003 125.73944 1461 ft 144 kts 226°
2026-04-18 10:24 44.02349 125.72895 1274 ft 143 kts 226°
2026-04-18 10:24 44.01696 125.71848 1092 ft 143 kts 227°
2026-04-18 10:24 44.01054 125.70813 887 ft 143 kts 228°
2026-04-18 10:24 44.00405 125.69771 725 ft 142 kts 228°
2026-04-18 10:25 43.99842 125.68872 723 ft 99 kts 231°
2026-04-18 10:25 43.99502 125.68311 723 ft 51 kts 230°
2026-04-18 10:25 43.99284 125.67961 723 ft 46 kts 230°
2026-04-18 10:25 43.99092 125.67657 723 ft 29 kts 229°
2026-04-18 10:26 43.98969 125.67453 723 ft 25 kts 222°
2026-04-18 10:26 43.98854 125.67485 723 ft 17 kts 110°
2026-04-18 10:26 43.98842 125.67613 723 ft 11 kts 61°
2026-04-18 10:26 43.98896 125.67699 723 ft 12 kts 46°
2026-04-18 10:27 43.98956 125.67792 723 ft 13 kts 49°
2026-04-18 10:27 43.99021 125.67896 723 ft 14 kts 50°
2026-04-18 10:27 43.99029 125.67995 723 ft 9 kts 129°
2026-04-18 10:27 43.98994 125.68067 723 ft 9 kts 117°
2026-04-18 10:28 43.98994 125.68151 723 ft 8 kts 58°
2026-04-18 10:28 43.99030 125.68219 723 ft 9 kts 51°
2026-04-18 10:28 43.99077 125.68295 723 ft 11 kts 51°
2026-04-18 10:28 43.99080 125.68356 723 ft 4 kts 142°
2026-04-18 10:29 43.99073 125.68362 723 ft 2 kts 147°
2026-04-18 10:29 43.99051 125.68385 723 ft 5 kts 140°
2026-04-18 10:29 43.99047 125.68390 723 ft 0 kts 140°
2026-04-18 10:29 43.99046 125.68391 723 ft 0 kts 140°
2026-04-18 10:30 43.99043 125.68394 723 ft 0 kts 140°
2026-04-18 10:30 43.99042 125.68396 724 ft 0 kts 139°